K7SKM Weather Reports


Display with metric or nautical units.
time (UTC)temp
F
wind
direction
speed
MPH
gust
MPH
rain 1hr
in
rain 24hr
in
rain mn
in
humidity
%
barometer
mb
20260504080435 57 176 0.0 0.0 0.00 0.00 0.00 78 1013.9
20260504070403 59 192 0.0 0.0 0.00 0.00 0.00 75 1013.7
20260504050750 64 180 0.0 0.0 0.00 0.00 0.00 61 1013.9
20260504050248 65 177 0.0 0.0 0.00 0.00 0.00 60 1014.0
20260504045745 65 171 0.0 0.0 0.00 0.00 0.00 59 1013.8
20260504045239 66 183 0.0 0.0 0.00 0.00 0.00 59 1013.9
20260504044737 66 182 0.0 0.0 0.00 0.00 0.00 58 1013.8
20260504044234 66 178 0.0 0.0 0.00 0.00 0.00 57 1013.7
20260504043731 66 196 0.0 0.0 0.00 0.00 0.00 56 1013.6
20260504043228 67 196 0.0 0.0 0.00 0.00 0.00 54 1013.8
20260504042726 68 196 0.0 0.0 0.00 0.00 0.00 53 1013.6
20260504042222 68 197 0.0 0.0 0.00 0.00 0.00 53 1013.6
20260504041718 68 197 0.0 0.0 0.00 0.00 0.00 51 1013.4
20260504041214 69 182 0.0 0.0 0.00 0.00 0.00 50 1013.5
20260504040711 69 203 0.0 0.0 0.00 0.00 0.00 49 1013.5
20260504040208 70 180 0.0 0.0 0.00 0.00 0.00 49 1013.6
20260504035704 70 222 0.0 0.0 0.00 0.00 0.00 47 1013.6
20260504035202 71 222 0.0 0.0 0.00 0.00 0.00 45 1013.4
20260504034659 71 192 0.0 0.0 0.00 0.00 0.00 46 1013.7
20260504034156 72 192 0.0 0.0 0.00 0.00 0.00 46 1013.3
20260504033654 72 233 0.0 0.0 0.00 0.00 0.00 44 1013.4
20260504033151 73 236 0.0 0.0 0.00 0.00 0.00 44 1013.3
20260504032648 73 233 0.0 0.0 0.00 0.00 0.00 43 1013.3
20260504032145 74 252 0.0 0.0 0.00 0.00 0.00 42 1013.4
20260504031642 75 246 0.0 0.0 0.00 0.00 0.00 42 1013.5
20260504031138 75 257 0.0 0.0 0.00 0.00 0.00 40 1013.3
20260504030635 75 236 0.0 7.0 0.00 0.00 0.00 40 1013.4
20260504030131 76 266 0.0 0.0 0.00 0.00 0.00 40 1013.3
20260504025628 76 261 0.0 0.0 0.00 0.00 0.00 39 1013.5
20260504025125 76 252 0.0 3.0 0.00 0.00 0.00 40 1013.3
20260504024623 77 257 0.0 0.0 0.00 0.00 0.00 41 1013.1
20260504024119 77 250 0.0 3.0 0.00 0.00 0.00 40 1013.2
20260504023616 77 277 0.0 0.0 0.00 0.00 0.00 40 1013.2
20260504023111 78 225 0.0 5.0 0.00 0.00 0.00 41 1013.3
20260504022608 78 263 3.0 7.0 0.00 0.00 0.00 40 1013.0
20260504022104 78 243 0.0 0.0 0.00 0.00 0.00 39 1013.2
20260504021602 78 224 0.0 0.0 0.00 0.00 0.00 40 1013.1
20260504021059 78 241 0.0 0.0 0.00 0.00 0.00 41 1013.2
20260504020555 78 257 0.0 0.0 0.00 0.00 0.00 40 1013.1
20260504020052 78 296 1.0 5.0 0.00 0.00 0.00 39 1013.4
20260504015548 79 278 0.0 7.0 0.00 0.00 0.00 38 1013.2
20260504015044 79 341 6.0 10.0 0.00 0.00 0.00 38 1013.4
20260504014541 80 248 0.0 0.0 0.00 0.00 0.00 38 1013.3
20260504014038 80 305 0.0 7.0 0.00 0.00 0.00 37 1013.3
20260504013535 80 289 0.0 3.0 0.00 0.00 0.00 37 1013.5
20260504013032 80 297 4.0 7.0 0.00 0.00 0.00 37 1013.3
20260504012530 80 296 2.0 7.0 0.00 0.00 0.00 37 1013.3
20260504012028 80 285 0.0 0.0 0.00 0.00 0.00 37 1013.4
20260504011524 80 284 0.0 7.0 0.00 0.00 0.00 36 1013.3
20260504011020 81 306 1.0 7.0 0.00 0.00 0.00 36 1013.4
20260504010516 81 262 0.0 10.0 0.00 0.00 0.00 36 1013.5
20260504010012 83 308 7.0 10.0 0.00 0.00 0.00 35 1013.6
20260504005509 84 240 0.0 10.0 0.00 0.00 0.00 34 1013.7
20260504005007 85 257 0.0 5.0 0.00 0.00 0.00 34 1013.5
20260504004504 84 248 0.0 3.0 0.00 0.00 0.00 35 1013.7
20260504004001 83 266 3.0 5.0 0.00 0.00 0.00 35 1013.8
20260504003456 84 274 3.0 12.0 0.00 0.00 0.00 34 1013.5
20260504002954 85 238 0.0 5.0 0.00 0.00 0.00 35 1013.7
20260504002451 86 261 1.0 5.0 0.00 0.00 0.00 34 1013.7
20260504001948 85 254 5.0 12.0 0.00 0.00 0.00 34 1013.7
20260504001446 84 202 0.0 10.0 0.00 0.00 0.00 35 1013.9
20260504000942 84 290 2.0 7.0 0.00 0.00 0.00 34 1013.9
20260504000439 86 238 0.0 0.0 0.00 0.00 0.00 33 1013.9
20260503235936 86 219 0.0 0.0 0.00 0.00 0.00 33 1014.1
20260503235434 84 300 3.0 10.0 0.00 0.00 0.00 36 1014.0
20260503234931 84 260 7.0 12.0 0.00 0.00 0.00 35 1014.3
20260503234429 83 273 5.0 10.0 0.00 0.00 0.00 35 1014.2
20260503233927 84 250 1.0 5.0 0.00 0.00 0.00 35 1014.3
20260503233423 85 280 1.0 5.0 0.00 0.00 0.00 33 1014.1
20260503232919 84 267 0.0 5.0 0.00 0.00 0.00 33 1014.3
20260503232417 85 256 0.0 3.0 0.00 0.00 0.00 33 1014.5
20260503231914 86 241 0.0 5.0 0.00 0.00 0.00 32 1014.7
20260503231411 84 293 6.0 12.0 0.00 0.00 0.00 32 1014.6
20260503230908 85 223 0.0 3.0 0.00 0.00 0.00 32 1014.6
20260503230404 83 247 0.0 3.0 0.00 0.00 0.00 34 1014.6
20260503225902 83 305 1.0 5.0 0.00 0.00 0.00 34 1014.7
20260503225358 82 299 3.0 7.0 0.00 0.00 0.00 35 1014.7
20260503224854 82 296 4.0 7.0 0.00 0.00 0.00 34 1014.9
20260503224351 83 250 0.0 3.0 0.00 0.00 0.00 35 1015.0
20260503223849 82 282 1.0 5.0 0.00 0.00 0.00 35 1015.2
20260503223347 81 291 2.0 12.0 0.00 0.00 0.00 36 1015.0
20260503222842 82 301 6.0 10.0 0.00 0.00 0.00 35 1015.2
20260503222341 83 271 0.0 3.0 0.00 0.00 0.00 35 1015.3
20260503221838 82 292 4.0 12.0 0.00 0.00 0.00 35 1015.4
20260503221337 82 281 2.0 5.0 0.00 0.00 0.00 35 1015.3
20260503220832 82 262 0.0 5.0 0.00 0.00 0.00 37 1015.5
20260503220330 81 286 0.0 5.0 0.00 0.00 0.00 36 1015.5
20260503215826 81 300 0.0 5.0 0.00 0.00 0.00 37 1015.3
20260503215324 81 300 1.0 7.0 0.00 0.00 0.00 37 1015.6
20260503214821 81 282 3.0 5.0 0.00 0.00 0.00 37 1015.5
20260503214318 80 300 4.0 15.0 0.00 0.00 0.00 38 1015.9
20260503213816 82 260 1.0 5.0 0.00 0.00 0.00 36 1015.8
20260503213314 81 271 5.0 12.0 0.00 0.00 0.00 37 1015.8
20260503212810 82 298 0.0 3.0 0.00 0.00 0.00 36 1015.7
20260503212308 81 302 1.0 7.0 0.00 0.00 0.00 37 1015.8
20260503211805 82 283 2.0 5.0 0.00 0.00 0.00 38 1016.0
20260503211302 81 263 0.0 0.0 0.00 0.00 0.00 39 1015.9
20260503210801 81 319 3.0 7.0 0.00 0.00 0.00 39 1015.9
20260503210300 79 297 2.0 10.0 0.00 0.00 0.00 40 1015.8
20260503205754 80 292 8.0 10.0 0.00 0.00 0.00 39 1016.0
20260503205251 80 258 0.0 3.0 0.00 0.00 0.00 41 1016.1
20260503204748 81 238 0.0 3.0 0.00 0.00 0.00 39 1016.3
20260503204245 81 164 0.0 5.0 0.00 0.00 0.00 40 1016.2
20260503203742 80 213 0.0 3.0 0.00 0.00 0.00 41 1016.3
20260503203240 80 271 0.0 5.0 0.00 0.00 0.00 43 1016.4
20260503202737 79 288 3.0 7.0 0.00 0.00 0.00 41 1016.7
20260503202235 79 305 1.0 5.0 0.00 0.00 0.00 42 1016.4
20260503201732 79 263 0.0 0.0 0.00 0.00 0.00 42 1016.4
20260503201230 79 294 8.0 10.0 0.00 0.00 0.00 40 1016.7
20260503200726 81 34 0.0 0.0 0.00 0.00 0.00 37 1016.5
20260503200222 81 145 0.0 0.0 0.00 0.00 0.00 38 1016.7
20260503195719 81 263 0.0 0.0 0.00 0.00 0.00 38 1016.9
20260503195216 81 235 0.0 3.0 0.00 0.00 0.00 38 1016.9
20260503194713 81 235 0.0 3.0 0.00 0.00 0.00 38 1017.1
20260503194209 80 227 0.0 7.0 0.00 0.00 0.00 40 1017.0
20260503193706 79 34 0.0 5.0 0.00 0.00 0.00 41 1016.9
20260503193202 80 66 0.0 0.0 0.00 0.00 0.00 39 1017.2
20260503192657 81 269 0.0 0.0 0.00 0.00 0.00 40 1017.4
20260503192153 79 258 0.0 0.0 0.00 0.00 0.00 42 1017.2
20260503191650 80 232 0.0 0.0 0.00 0.00 0.00 41 1017.3
20260503191147 77 231 0.0 5.0 0.00 0.00 0.00 46 1017.4
20260503190644 76 221 0.0 10.0 0.00 0.00 0.00 47 1017.7
20260503190140 77 256 4.0 10.0 0.00 0.00 0.00 44 1017.5
20260503185637 77 266 0.0 12.0 0.00 0.00 0.00 45 1017.6
20260503185132 78 306 2.0 5.0 0.00 0.00 0.00 43 1017.8
20260503184628 76 284 3.0 7.0 0.00 0.00 0.00 46 1017.8
20260503184125 75 279 6.0 12.0 0.00 0.00 0.00 47 1017.9
20260503183621 76 238 0.0 0.0 0.00 0.00 0.00 46 1017.8
20260503183118 76 257 0.0 3.0 0.00 0.00 0.00 46 1017.9
20260503182617 74 247 0.0 7.0 0.00 0.00 0.00 48 1018.0
20260503182115 75 268 2.0 5.0 0.00 0.00 0.00 46 1018.0
20260503181611 75 230 0.0 5.0 0.00 0.00 0.00 45 1018.0
20260503181108 75 244 0.0 0.0 0.00 0.00 0.00 46 1018.2
20260503180605 73 271 1.0 7.0 0.00 0.00 0.00 46 1018.0
20260503180103 75 256 0.0 0.0 0.00 0.00 0.00 47 1018.0
20260503175559 72 272 4.0 7.0 0.00 0.00 0.00 49 1018.0
20260503175057 72 295 0.0 7.0 0.00 0.00 0.00 49 1018.2
20260503174554 72 273 0.0 5.0 0.00 0.00 0.00 49 1018.2
20260503174050 71 272 0.0 7.0 0.00 0.00 0.00 50 1018.3
20260503173545 74 314 0.0 3.0 0.00 0.00 0.00 48 1018.2
20260503173042 75 245 0.0 0.0 0.00 0.00 0.00 46 1018.2
20260503172539 73 119 0.0 0.0 0.00 0.00 0.00 50 1018.4
20260503172036 71 289 0.0 0.0 0.00 0.00 0.00 52 1018.5
20260503171533 72 315 0.0 5.0 0.00 0.00 0.00 52 1018.5
20260503171030 71 231 0.0 0.0 0.00 0.00 0.00 53 1018.5
20260503170526 70 263 0.0 0.0 0.00 0.00 0.00 56 1018.5
20260503150918 58 185 0.0 0.0 0.00 0.00 0.00 79 1019.0
20260503150415 58 184 0.0 0.0 0.00 0.00 0.00 79 1019.1
20260503131308 51 139 0.0 0.0 0.00 0.00 0.00 94 1018.6
20260503130806 51 179 0.0 0.0 0.00 0.00 0.00 94 1018.6
20260503130303 51 171 0.0 0.0 0.00 0.00 0.00 94 1018.7
20260503110657 52 183 0.0 0.0 0.00 0.00 0.00 87 1018.8
20260503110154 53 183 0.0 0.0 0.00 0.00 0.00 87 1019.0
20260503100121 54 215 0.0 0.0 0.00 0.00 0.00 85 1018.9
20260503081510 57 150 0.0 0.0 0.00 0.00 0.00 81 1019.2
20260503081007 57 155 0.0 0.0 0.00 0.00 0.00 80 1019.0